Location: Unspecified
(40.7945°N, 111.1337°W)
Time: 21:21:34
(UTC-06:00)

Vanguard 1 - Pass Details

Date: 29 June 2019
Orbit: 653 x 3830 km, 34.3° (Epoch: 12 October)

Event Time Altitude Azimuth Distance (km) Brightness Sun altitude
Rises 01:31:04 0° 230° (SW) 7,858 14.3 -26.0°
Reaches altitude 10° 01:36:33 10° 227° (SW) 6,917 14.0 -25.9°
Maximum altitude 01:58:40 54° 158° (SSE) 3,809 12.6 -25.6°
Drops below altitude 10° 02:14:01 10° 87° (E) 5,022 13.8 -25.1°
Sets 02:17:15 0° 82° (E) 5,678 14.2 -25.0°
